AC0ID-13 Weather Reports


Display with metric or nautical units.
time (UTC)temp
F
wind
direction
speed
MPH
gust
MPH
rain 1hr
in
rain 24hr
in
rain mn
in
humidity
%
barometer
mb
20260901174016 86 279 0.0 3.0 0.00 0.00 0.00 46 1015.3
20260901173512 86 5 0.0 5.0 0.00 0.00 0.00 45 1015.2
20260901173022 86 24 1.0 5.0 0.00 0.00 0.00 50 1015.3
20260901172512 85 360 1.0 3.0 0.00 0.00 0.00 47 1015.3
20260901172012 86 9 0.0 4.0 0.00 0.00 0.00 47 1015.4
20260901171520 87 31 1.0 4.0 0.00 0.00 0.00 44 1015.4
20260901171012 88 255 0.0 5.0 0.00 0.00 0.00 45 1015.4
20260901170511 87 310 0.0 5.0 0.00 0.00 0.00 46 1015.5
20260901170038 87 321 1.0 4.0 0.00 0.00 0.00 44 1015.5
20260901165515 88 329 1.0 4.0 0.00 0.00 0.00 46 1015.4
20260901165010 87 332 1.0 4.0 0.00 0.00 0.00 48 1015.3
20260901164523 87 310 0.0 3.0 0.00 0.00 0.00 47 1015.3
20260901164012 87 310 0.0 3.0 0.00 0.00 0.00 42 1015.4
20260901163512 86 38 0.0 4.0 0.00 0.00 0.00 45 1015.4
20260901163020 86 211 1.0 4.0 0.00 0.00 0.00 47 1015.4
20260901162511 86 360 1.0 4.0 0.00 0.00 0.00 45 1015.4
20260901162015 85 318 1.0 4.0 0.00 0.00 0.00 47 1015.4
20260901161521 85 10 1.0 5.0 0.00 0.00 0.00 46 1015.4
20260901161016 85 344 1.0 5.0 0.00 0.00 0.00 47 1015.4
20260901160515 84 331 1.0 4.0 0.00 0.00 0.00 48 1015.4
20260901160024 84 341 1.0 4.0 0.00 0.00 0.00 52 1015.4
20260901155512 83 327 1.0 5.0 0.00 0.00 0.00 51 1015.5
20260901155014 83 234 0.0 5.0 0.00 0.00 0.00 54 1015.5
20260901154524 83 24 1.0 4.0 0.00 0.00 0.00 57 1015.5
20260901154012 84 115 0.0 5.0 0.00 0.00 0.00 56 1015.5
20260901153512 83 319 1.0 5.0 0.00 0.00 0.00 60 1015.4
20260901153023 82 342 0.0 4.0 0.00 0.00 0.00 62 1015.4
20260901152511 81 298 0.0 3.0 0.00 0.00 0.00 68 1015.4
20260901152010 80 274 0.0 3.0 0.00 0.00 0.00 69 1015.4
20260901151515 80 9 0.0 4.0 0.00 0.00 0.00 68 1015.3
20260901151004 80 350 1.0 4.0 0.00 0.00 0.00 69 1015.4
20260901150509 79 5 0.0 3.0 0.00 0.00 0.00 69 1015.4
20260901150012 78 36 0.0 3.0 0.00 0.00 0.00 71 1015.4
20260901145503 77 230 0.0 2.0 0.00 0.00 0.00 72 1015.5
20260901145007 77 320 0.0 2.0 0.00 0.00 0.00 72 1015.5
20260901144517 76 230 0.0 2.0 0.00 0.00 0.00 74 1015.4
20260901144005 75 236 0.0 2.0 0.00 0.00 0.00 74 1015.4
20260901143502 75 246 0.0 2.0 0.00 0.00 0.00 77 1015.4
20260901143020 74 237 0.0 2.0 0.00 0.00 0.00 78 1015.5
20260901142508 73 137 0.0 0.0 0.00 0.00 0.00 81 1015.5
20260901142003 72 137 0.0 0.0 0.00 0.00 0.00 82 1015.5
20260901141513 71 202 0.0 0.0 0.00 0.00 0.00 84 1015.5
20260901141013 70 202 0.0 0.0 0.00 0.00 0.00 85 1015.4
20260901140512 70 223 0.0 0.0 0.00 0.00 0.00 86 1015.4
20260901140011 69 272 0.0 0.0 0.00 0.00 0.00 87 1015.4
20260901135512 69 305 0.0 0.0 0.00 0.00 0.00 87 1015.5
20260901135010 69 305 0.0 0.0 0.00 0.00 0.00 88 1015.5
20260901134517 68 305 0.0 0.0 0.00 0.00 0.00 88 1015.5
20260901134007 68 305 0.0 0.0 0.00 0.00 0.00 89 1015.4
20260901133511 68 305 0.0 0.0 0.00 0.00 0.00 90 1015.4
20260901133019 68 305 0.0 0.0 0.00 0.00 0.00 91 1015.4
20260901132507 67 305 0.0 0.0 0.00 0.00 0.00 92 1015.4
20260901132004 67 305 0.0 0.0 0.00 0.00 0.00 92 1015.4
20260901131509 67 305 0.0 0.0 0.00 0.00 0.00 92 1015.4
20260901131012 66 305 0.0 0.0 0.00 0.00 0.00 93 1015.3
20260901130513 66 305 0.0 0.0 0.00 0.00 0.00 93 1015.3
20260901130023 66 305 0.0 0.0 0.00 0.00 0.00 93 1015.2
20260901125510 66 305 0.0 0.0 0.00 0.00 0.00 93 1015.2
20260901125008 65 305 0.0 0.0 0.00 0.00 0.00 93 1015.2
20260901124517 65 305 0.0 0.0 0.00 0.00 0.00 93 1015.2
20260901124014 65 305 0.0 0.0 0.00 0.00 0.00 93 1015.1
20260901123513 65 305 0.0 0.0 0.00 0.00 0.00 93 1015.0
20260901123028 65 305 0.0 0.0 0.00 0.00 0.00 93 1015.0
20260901122512 64 305 0.0 0.0 0.00 0.00 0.00 93 1015.0
20260901122011 64 305 0.0 0.0 0.00 0.00 0.00 93 1015.0
20260901121523 64 305 0.0 0.0 0.00 0.00 0.00 93 1014.9
20260901121010 64 305 0.0 0.0 0.00 0.00 0.00 93 1014.9
20260901120510 64 305 0.0 0.0 0.00 0.00 0.00 93 1014.7
20260901120013 64 305 0.0 0.0 0.00 0.00 0.00 93 1014.7
20260901115509 63 305 0.0 0.0 0.00 0.00 0.00 93 1014.7
20260901115009 63 305 0.0 0.0 0.00 0.00 0.00 92 1014.7
20260901114520 63 305 0.0 0.0 0.00 0.00 0.00 92 1014.7
20260901114012 63 305 0.0 0.0 0.00 0.00 0.00 92 1014.5
20260901113511 63 305 0.0 0.0 0.00 0.00 0.00 92 1014.6
20260901113024 63 305 0.0 0.0 0.00 0.00 0.00 92 1014.6
20260901112512 63 305 0.0 0.0 0.00 0.00 0.00 92 1014.6
20260901112006 63 305 0.0 0.0 0.00 0.00 0.00 92 1014.6
20260901111523 63 305 0.0 0.0 0.00 0.00 0.00 92 1014.5
20260901111012 63 305 0.0 0.0 0.00 0.00 0.00 92 1014.4
20260901110513 63 305 0.0 0.0 0.00 0.00 0.00 92 1014.4
20260901110018 64 305 0.0 0.0 0.00 0.00 0.00 92 1014.3
20260901105520 64 305 0.0 0.0 0.00 0.00 0.00 92 1014.3
20260901105011 64 305 0.0 0.0 0.00 0.00 0.00 92 1014.3
20260901104522 64 305 0.0 0.0 0.00 0.00 0.00 92 1014.4
20260901104010 64 305 0.0 0.0 0.00 0.00 0.00 92 1014.4
20260901103512 64 305 0.0 0.0 0.00 0.00 0.00 92 1014.4
20260901103023 64 305 0.0 0.0 0.00 0.00 0.00 92 1014.4
20260901102511 64 305 0.0 0.0 0.00 0.00 0.00 91 1014.5
20260901102014 64 305 0.0 0.0 0.00 0.00 0.00 91 1014.5
20260901101529 64 305 0.0 0.0 0.00 0.00 0.00 91 1014.4
20260901101015 64 305 0.0 0.0 0.00 0.00 0.00 91 1014.4
20260901100514 64 305 0.0 0.0 0.00 0.00 0.00 91 1014.3
20260901100027 64 305 0.0 0.0 0.00 0.00 0.00 91 1014.2
20260901095515 65 305 0.0 0.0 0.00 0.00 0.00 91 1014.1
20260901095011 65 305 0.0 0.0 0.00 0.00 0.00 91 1014.1
20260901094525 65 305 0.0 0.0 0.00 0.00 0.00 91 1014.1
20260901094016 65 305 0.0 0.0 0.00 0.00 0.00 90 1014.0
20260901093511 65 305 0.0 0.0 0.00 0.00 0.00 90 1014.0
20260901093025 65 305 0.0 0.0 0.00 0.00 0.00 90 1014.0
20260901092503 65 305 0.0 0.0 0.00 0.00 0.00 90 1014.0
20260901092006 65 305 0.0 0.0 0.00 0.00 0.00 90 1014.1
20260901091504 66 305 0.0 0.0 0.00 0.00 0.00 90 1014.2
20260901091003 66 305 0.0 0.0 0.00 0.00 0.00 90 1014.2
20260901090504 66 305 0.0 0.0 0.00 0.00 0.00 90 1014.2
20260901090007 66 305 0.0 0.0 0.00 0.00 0.00 90 1014.1
20260901085503 66 305 0.0 0.0 0.00 0.00 0.00 90 1014.2
20260901085006 66 305 0.0 0.0 0.00 0.00 0.00 90 1014.2
20260901084511 66 305 0.0 0.0 0.00 0.00 0.00 89 1014.1
20260901084008 66 305 0.0 0.0 0.00 0.00 0.00 89 1014.0
20260901083508 66 305 0.0 0.0 0.00 0.00 0.00 89 1014.2
20260901083008 66 305 0.0 0.0 0.00 0.00 0.00 89 1014.1
20260901082508 67 305 0.0 0.0 0.00 0.00 0.00 88 1014.1
20260901082011 67 305 0.0 0.0 0.00 0.00 0.00 88 1014.1
20260901081504 67 305 0.0 0.0 0.00 0.00 0.00 88 1014.0
20260901081006 67 305 0.0 0.0 0.00 0.00 0.00 88 1014.0
20260901080509 67 305 0.0 0.0 0.00 0.00 0.00 88 1014.0
20260901080006 68 305 0.0 0.0 0.00 0.00 0.00 88 1014.0
20260901075504 68 305 0.0 0.0 0.00 0.00 0.00 87 1014.2
20260901075007 68 305 0.0 0.0 0.00 0.00 0.00 87 1014.2
20260901074508 68 305 0.0 0.0 0.00 0.00 0.00 87 1014.2
20260901074007 68 305 0.0 0.0 0.00 0.00 0.00 86 1014.3
20260901073505 68 305 0.0 0.0 0.00 0.00 0.00 87 1014.3
20260901073014 68 305 0.0 0.0 0.00 0.00 0.00 86 1014.4
20260901072510 68 305 0.0 0.0 0.00 0.00 0.00 86 1014.4
20260901072006 69 305 0.0 0.0 0.00 0.00 0.00 86 1014.4
20260901071516 69 305 0.0 1.0 0.00 0.00 0.00 86 1014.4
20260901071010 69 305 0.0 1.0 0.00 0.00 0.00 85 1014.3
20260901070512 69 305 0.0 0.0 0.00 0.00 0.00 85 1014.3
20260901070014 69 305 0.0 0.0 0.00 0.00 0.00 84 1014.3
20260901065514 70 305 0.0 0.0 0.00 0.00 0.00 84 1014.4
20260901065015 70 305 0.0 0.0 0.00 0.00 0.00 83 1014.4
20260901064507 70 305 0.0 0.0 0.00 0.00 0.00 83 1014.5
20260901064004 70 305 0.0 0.0 0.00 0.00 0.00 83 1014.3
20260901063504 71 305 0.0 0.0 0.00 0.00 0.00 83 1014.4
20260901063015 71 305 0.0 1.0 0.00 0.00 0.00 82 1014.4
20260901062508 71 305 0.0 1.0 0.00 0.00 0.00 82 1014.4
20260901062009 71 305 0.0 0.0 0.00 0.00 0.00 82 1014.3
20260901061514 71 305 0.0 1.0 0.00 0.00 0.00 82 1014.3
20260901061003 70 305 0.0 2.0 0.00 0.00 0.00 83 1014.2
20260901060510 70 360 0.0 3.0 0.00 0.00 0.00 83 1014.2
20260901060036 70 292 0.0 3.0 0.00 0.00 0.00 83 1014.2
20260901055513 70 5 0.0 3.0 0.00 0.00 0.00 83 1014.2
20260901055007 70 326 0.0 3.0 0.00 0.00 0.00 83 1014.2
20260901054518 70 328 0.0 1.0 0.00 0.00 0.00 84 1014.2
20260901054014 70 328 0.0 0.0 0.00 0.00 0.00 83 1014.2
20260901053505 70 328 0.0 0.0 0.00 0.00 0.00 83 1014.1
20260901053016 70 328 0.0 1.0 0.00 0.00 0.00 83 1014.0
20260901052503 70 328 0.0 1.0 0.00 0.00 0.00 83 1014.0
20260901052011 70 328 0.0 0.0 0.00 0.00 0.00 83 1013.9
20260901051511 71 328 0.0 0.0 0.00 0.00 0.00 83 1013.9
20260901051009 71 328 0.0 0.0 0.00 0.00 0.00 83 1013.8
20260901050511 71 328 0.0 1.0 0.00 0.00 0.00 83 1013.8
20260901050018 71 328 0.0 1.0 0.00 0.00 0.00 83 1013.7
20260901045511 71 328 0.0 1.0 0.00 0.00 0.00 83 1013.7
20260901045013 71 328 0.0 1.0 0.00 0.00 0.00 82 1013.7
20260901044526 72 328 0.0 1.0 0.00 0.00 0.00 82 1013.7
20260901044007 72 320 0.0 1.0 0.00 0.00 0.00 82 1013.6
20260901043513 72 320 0.0 0.0 0.00 0.00 0.00 82 1013.6
20260901043027 72 320 0.0 0.0 0.00 0.00 0.00 81 1013.6
20260901042515 72 320 0.0 1.0 0.00 0.00 0.00 81 1013.6
20260901042008 73 320 0.0 2.0 0.00 0.00 0.00 81 1013.6
20260901041524 73 320 0.0 3.0 0.00 0.00 0.00 81 1013.7
20260901041005 73 352 0.0 3.0 0.00 0.00 0.00 81 1013.6
20260901040506 73 205 0.0 0.0 0.00 0.00 0.00 81 1013.6
20260901040017 73 205 0.0 0.0 0.00 0.00 0.00 81 1013.6
20260901035512 73 205 0.0 1.0 0.00 0.00 0.00 81 1013.5
20260901035011 74 205 0.0 1.0 0.00 0.00 0.00 81 1013.6
20260901034516 74 205 0.0 1.0 0.00 0.00 0.00 80 1013.5
20260901034013 74 205 0.0 0.0 0.00 0.00 0.00 80 1013.5
20260901033515 74 205 0.0 1.0 0.00 0.00 0.00 79 1013.5
20260901033027 75 205 0.0 1.0 0.00 0.00 0.00 79 1013.4
20260901032510 75 205 0.0 1.0 0.00 0.00 0.00 79 1013.5
20260901032014 75 205 0.0 1.0 0.00 0.00 0.00 78 1013.5
20260901031530 76 205 0.0 1.0 0.00 0.00 0.00 78 1013.5
20260901031010 76 100 0.0 1.0 0.00 0.00 0.00 77 1013.5
20260901030512 76 105 0.0 1.0 0.00 0.00 0.00 77 1013.4
20260901030004 77 105 0.0 2.0 0.00 0.00 0.00 77 1013.3
20260901025504 77 343 0.0 2.0 0.00 0.00 0.00 77 1013.4
20260901025010 77 5 0.0 1.0 0.00 0.00 0.00 77 1013.4
20260901024503 77 319 0.0 2.0 0.00 0.00 0.00 76 1013.4
20260901024007 77 176 0.0 4.0 0.00 0.00 0.00 76 1013.4
20260901023504 78 150 0.0 4.0 0.00 0.00 0.00 76 1013.3
20260901023004 78 315 0.0 4.0 0.00 0.00 0.00 76 1013.3
20260901022503 78 44 0.0 1.0 0.00 0.00 0.00 76 1013.3
20260901022003 78 110 0.0 1.0 0.00 0.00 0.00 77 1013.2
20260901021507 78 54 0.0 1.0 0.00 0.00 0.00 77 1013.2
20260901021002 78 320 0.0 1.0 0.00 0.00 0.00 77 1013.2
20260901020506 79 46 0.0 1.0 0.00 0.00 0.00 77 1013.3
20260901020007 79 23 0.0 2.0 0.00 0.00 0.00 78 1013.2
20260901015503 79 52 0.0 2.0 0.00 0.00 0.00 78 1013.2
20260901015003 79 44 0.0 2.0 0.00 0.00 0.00 79 1013.1
20260901014512 80 225 0.0 1.0 0.00 0.00 0.00 79 1013.0
20260901014010 80 213 0.0 1.0 0.00 0.00 0.00 80 1013.0
20260901013504 80 224 0.0 1.0 0.00 0.00 0.00 81 1012.9
20260901013010 80 224 0.0 0.0 0.00 0.00 0.00 82 1012.8
20260901012510 81 224 0.0 3.0 0.00 0.00 0.00 81 1012.7
20260901012006 81 224 0.0 3.0 0.00 0.00 0.00 81 1012.8
20260901011504 81 203 1.0 3.0 0.00 0.00 0.00 81 1012.8
20260901011003 81 221 0.0 2.0 0.00 0.00 0.00 81 1012.8
20260901010502 82 243 0.0 3.0 0.00 0.00 0.00 80 1012.7
20260901010004 82 257 0.0 3.0 0.00 0.00 0.00 80 1012.7
20260901005509 82 229 1.0 3.0 0.00 0.00 0.00 79 1012.6
20260901005008 82 135 0.0 4.0 0.00 0.00 0.00 79 1012.6
20260901004510 83 244 1.0 4.0 0.00 0.00 0.00 78 1012.6
20260901004003 83 194 0.0 3.0 0.00 0.00 0.00 78 1012.5
20260901003506 83 236 1.0 4.0 0.00 0.00 0.00 78 1012.6
20260901003020 83 245 1.0 4.0 0.00 0.00 0.00 78 1012.5
20260901002504 83 211 1.0 6.0 0.00 0.00 0.00 77 1012.5
20260901002010 84 219 0.0 6.0 0.00 0.00 0.00 77 1012.5
20260901001525 84 252 1.0 6.0 0.00 0.00 0.00 76 1012.5
20260901001011 84 188 0.0 4.0 0.00 0.00 0.00 76 1012.4
20260901000505 84 277 1.0 4.0 0.00 0.00 0.00 76 1012.4
20260901000005 84 231 0.0 6.0 0.00 0.00 0.00 75 1012.4
20260831235503 84 194 2.0 6.0 0.00 0.00 0.00 75 1012.3
20260831235005 85 244 1.0 5.0 0.00 0.00 0.00 75 1012.3
20260831234504 85 249 2.0 6.0 0.00 0.00 0.00 74 1012.3
20260831234004 85 234 2.0 6.0 0.00 0.00 0.00 73 1012.3
20260831233506 85 182 1.0 4.0 0.00 0.00 0.00 72 1012.3
20260831233004 85 184 1.0 5.0 0.00 0.00 0.00 72 1012.3
20260831232508 86 241 1.0 6.0 0.00 0.00 0.00 71 1012.3
20260831232012 86 250 1.0 6.0 0.00 0.00 0.00 71 1012.3
20260831231523 86 227 2.0 6.0 0.00 0.00 0.00 71 1012.2
20260831231006 85 167 0.0 4.0 0.00 0.00 0.00 71 1012.2
20260831230510 86 194 0.0 3.0 0.00 0.00 0.00 71 1012.2
20260831230022 86 169 0.0 5.0 0.00 0.00 0.00 70 1012.1
20260831225507 86 234 1.0 5.0 0.00 0.00 0.00 70 1012.1
20260831225006 86 257 1.0 4.0 0.00 0.00 0.00 70 1012.1
20260831224505 86 329 0.0 7.0 0.00 0.00 0.00 69 1012.1
20260831224004 87 232 1.0 7.0 0.00 0.00 0.00 69 1012.2
20260831223503 87 242 0.0 5.0 0.00 0.00 0.00 69 1012.1
20260831223008 87 176 0.0 4.0 0.00 0.00 0.00 69 1012.0
20260831222506 87 240 1.0 7.0 0.00 0.00 0.00 68 1012.1
20260831222009 87 139 2.0 7.0 0.00 0.00 0.00 68 1012.1
20260831221509 88 257 2.0 6.0 0.00 0.00 0.00 66 1012.1
20260831221011 88 107 0.0 7.0 0.00 0.00 0.00 67 1012.0
20260831220510 87 194 0.0 7.0 0.00 0.00 0.00 67 1012.0
20260831220011 87 178 0.0 3.0 0.00 0.00 0.00 66 1012.0
20260831215511 88 154 1.0 5.0 0.00 0.00 0.00 66 1012.0
20260831215013 88 201 2.0 5.0 0.00 0.00 0.00 66 1012.0
20260831214527 88 266 1.0 6.0 0.00 0.00 0.00 66 1012.0
20260831214006 88 184 1.0 6.0 0.00 0.00 0.00 67 1011.9
20260831213512 88 172 1.0 6.0 0.00 0.00 0.00 68 1011.9
20260831213028 88 254 2.0 7.0 0.00 0.00 0.00 68 1011.9
20260831212504 88 201 2.0 7.0 0.00 0.00 0.00 67 1011.8
20260831212006 88 225 2.0 6.0 0.00 0.00 0.00 67 1011.8
20260831211511 88 195 1.0 5.0 0.00 0.00 0.00 67 1011.9
20260831211006 88 138 2.0 5.0 0.00 0.00 0.00 67 1011.8
20260831210506 88 36 1.0 3.0 0.00 0.00 0.00 68 1011.8
20260831210019 87 53 1.0 4.0 0.00 0.00 0.00 68 1011.8
20260831205510 87 258 0.0 4.0 0.00 0.00 0.00 70 1011.9
20260831205008 87 150 1.0 3.0 0.00 0.00 0.00 70 1011.8
20260831204516 86 182 0.0 3.0 0.00 0.00 0.00 71 1011.8
20260831204014 85 302 0.0 3.0 0.00 0.00 0.00 72 1011.7
20260831203516 84 61 0.0 2.0 0.00 0.00 0.00 74 1011.6
20260831203012 84 254 0.0 2.0 0.00 0.00 0.00 73 1011.7
20260831202510 84 172 0.0 2.0 0.00 0.00 0.00 73 1011.8
20260831202014 84 172 0.0 2.0 0.00 0.00 0.00 74 1011.8
20260831201532 84 189 0.0 2.0 0.00 0.00 0.00 73 1011.7
20260831201008 84 336 0.0 2.0 0.00 0.00 0.00 73 1011.7
20260831200506 83 316 0.0 2.0 0.00 0.00 0.00 75 1011.5
20260831200014 83 9 0.0 2.0 0.00 0.00 0.00 76 1011.3
20260831195507 83 320 0.0 4.0 0.00 0.00 0.00 75 1011.3
20260831195013 83 352 1.0 5.0 0.00 0.00 0.00 75 1011.2
20260831194520 83 343 1.0 5.0 0.00 0.00 0.00 75 1011.2
20260831194013 83 324 1.0 3.0 0.00 0.00 0.00 75 1011.4
20260831193510 83 320 0.0 3.0 0.00 0.00 0.00 76 1011.4
20260831193032 83 44 0.0 3.0 0.00 0.00 0.00 76 1011.4
20260831192516 83 325 0.0 3.0 0.00 0.00 0.00 76 1011.5
20260831192011 83 332 0.0 4.0 0.00 0.00 0.00 76 1011.4
20260831191518 83 39 0.0 4.0 0.00 0.00 0.00 76 1011.7
20260831191015 83 11 0.0 4.0 0.00 0.00 0.00 75 1011.8
20260831190516 83 352 1.0 5.0 0.00 0.00 0.00 76 1011.8
20260831190017 83 310 1.0 8.0 0.00 0.00 0.00 75 1011.6
20260831185509 83 11 1.0 8.0 0.00 0.00 0.00 75 1011.5
20260831185011 84 345 0.0 5.0 0.00 0.00 0.00 74 1011.4
20260831184514 84 325 1.0 5.0 0.00 0.00 0.00 73 1011.5
20260831184011 84 339 0.0 5.0 0.00 0.00 0.00 72 1011.4
20260831183513 84 326 0.0 3.0 0.00 0.00 0.00 73 1011.4
20260831183035 85 344 0.0 3.0 0.00 0.00 0.00 72 1011.3
20260831182511 85 15 0.0 3.0 0.00 0.00 0.00 74 1011.3
20260831182014 85 322 1.0 4.0 0.00 0.00 0.00 72 1011.3
20260831181527 85 322 0.0 4.0 0.00 0.00 0.00 71 1011.4
20260831181016 86 323 0.0 3.0 0.00 0.00 0.00 70 1011.3
20260831180513 86 350 0.0 3.0 0.00 0.00 0.00 70 1011.3
20260831180027 87 327 1.0 3.0 0.00 0.00 0.00 69 1011.3
20260831175514 88 346 0.0 3.0 0.00 0.00 0.00 67 1011.4
20260831175008 88 323 0.0 3.0 0.00 0.00 0.00 68 1011.5
20260831174524 88 148 0.0 2.0 0.00 0.00 0.00 67 1011.5